Home > Weather > Berkeley > Past weeks

Flag for U.S.A. Weather for the Past 2 Weeks in Berkeley, California, U.S.A.

Now
58 °F

Partly sunny.


Feels Like: 56 °F
Forecast: 46 / 63 °F
Wind: 9 mph from West

Location: Metro Oakland International Airport

Current Time: Feb 6, 2016 at 1:14:26 PM

Latest Report: Feb 6, 2016 at 12:53 PM


Visibility: 10 mi

Pressure: 30.37 "Hg

Humidity: 70%

Dew point: 48 °F

Location of BerkeleyLocation

Historic Weather in Berkeley — Graph

°F

Berkeley Temperature Yesterday

Maximum temperature yesterday: 62 °F (at 3:53 PM)
Minimum temperature yesterday: 41 °F (at 4:53 AM)
Average temperature yesterday: 52 °F

High & Low Weather Summary for the Past Weeks

 TemperatureHumidityPressure
High62 °F (Jan 27, 11:53 AM)97% (Jan 29, 6:53 PM)30.47 "Hg (Jan 29, 6:53 PM)
Low41 °F (Feb 3, 4:53 AM)33% (Feb 1, 2:53 PM)29.76 "Hg (Jan 31, 2:53 PM)
Average53 °F73%30.21 "Hg
* Reported Jan 22 11:53 AM — Feb 6 11:53 AM, Berkeley, Weather by CustomWeather, © 2016

Note: Actual official high and low records may vary slightly from our data, if they occured in-between our weather recording intervals... More about our weather records

Advertising

Berkeley Weather History for the Previous 24 Hours

 ConditionsComfort  
Time TempWeatherWind HumidityBarometerVisibility
11:53 AM
Sat, Feb 6
56 °FScattered clouds.8 mph72%30.41 "Hg9 mi
10:53 AM55 °FScattered clouds.7 mph74%30.43 "Hg9 mi
9:53 AM55 °FScattered clouds.8 mph74%30.43 "Hg9 mi
8:53 AM53 °FScattered clouds.7 mph74%30.43 "Hg10 mi
7:53 AM48 °FPassing clouds.7 mph83%30.42 "Hg10 mi
6:53 AM43 °FPassing clouds.No wind86%30.41 "Hg8 mi
5:53 AM44 °FFog.3 mph93%30.41 "Hg8 mi
4:53 AM45 °FPassing clouds.No wind90%30.40 "Hg8 mi
3:53 AM48 °FClear.3 mph86%30.38 "Hg7 mi
2:53 AM48 °FClear.No wind83%30.39 "Hg9 mi
1:53 AM49 °FPassing clouds.3 mph80%30.39 "Hg10 mi
12:53 AM48 °FPassing clouds.6 mph83%30.41 "Hg10 mi
11:53 PM
Fri, Feb 5
51 °FPassing clouds.7 mph80%30.41 "Hg9 mi
10:53 PM49 °FPassing clouds.3 mph86%30.42 "Hg8 mi
9:53 PM53 °FPassing clouds.3 mph83%30.43 "Hg8 mi
8:53 PM52 °FPassing clouds.3 mph83%30.40 "Hg8 mi
7:53 PM55 °FPassing clouds.No wind80%30.39 "Hg10 mi
6:53 PM55 °FPassing clouds.3 mph74%30.38 "Hg10 mi
5:53 PM57 °FPassing clouds.6 mph67%30.36 "Hg10 mi
4:53 PM59 °FScattered clouds.8 mph69%30.35 "Hg10 mi
3:53 PM62 °FScattered clouds.7 mph60%30.35 "Hg10 mi
2:53 PM61 °FPartly sunny.9 mph62%30.37 "Hg10 mi
1:53 PM61 °FPartly sunny.8 mph56%30.38 "Hg10 mi
Weather by CustomWeather, © 2016

See weather overviewHow to use our weather pages